Flag for Norway Weather past 2 weeks in Fagernes, Norway

Now
32 °F

Broken clouds.


Feels Like: 22 °F
Forecast: 19 / 40 °F
Wind: 13 mph from South

Location: Fagernes Leirin

Current Time: Mar 5, 2015 at 4:31:44 PM

Latest Report: Mar 5, 2015 at 3:50 PM


Visibility: N/A

Pressure: 30.01 "Hg

Humidity: 69%

Dew point: 23 °F

Location of FagernesLocation

Historic Weather in Fagernes — Graph

°F

Fagernes temperature yesterday

Maximum temperature yesterday: 30 °F (at 1:20 PM)
Minimum temperature yesterday: 1 °F (at 7:20 AM)
Average temperature yesterday: 23 °F

Past Weeks' High & Low Weather Summary

 TemperatureHumidityPressure
High46 °F (Feb 19, 12:50 PM)93% (Feb 23, 9:50 AM)30.12 "Hg (Feb 23, 9:50 AM)
Low1 °F (Mar 4, 7:20 AM)43% (Feb 22, 2:50 PM)28.80 "Hg (Feb 23, 9:20 AM)
Average28 °F74%29.37 "Hg
* Reported Feb 18 3:20 PM — Mar 5 3:20 PM, Fagernes, Weather by CustomWeather, © 2015

Note: Actual official high and low records may vary slightly from our data, if they occured in-between our weather recording intervals... More about our weather records

Advertising

Fagernes weather history for previous 24 hours

 ConditionsComfort  
Time TempWeatherWind HumidityBarometerVisibility
3:20 PM
Thu, Mar 5
32 °FBroken clouds.15 mph64%30.01 "HgN/A
2:50 PM30 °FBroken clouds.13 mph69%30.04 "HgN/A
1:50 PM30 °FBroken clouds.12 mph69%30.07 "HgN/A
1:20 PM30 °FBroken clouds.14 mph69%30.07 "HgN/A
12:50 PM28 °FPartly sunny.14 mph74%30.07 "HgN/A
11:50 AM28 °FPartly sunny.9 mph64%30.09 "HgN/A
11:20 AM28 °FPartly sunny.8 mph64%30.09 "HgN/A
10:50 AM27 °FPartly sunny.2 mph69%30.12 "HgN/A
9:50 AM23 °FPartly sunny.No wind74%30.09 "HgN/A
9:20 AM19 °FScattered clouds.1 mph79%30.12 "HgN/A
8:50 AM18 °FScattered clouds.2 mph86%30.09 "HgN/A
8:20 AM16 °FCold.N/A86%30.12 "HgN/A
7:50 AM14 °FSunny.1 mph92%30.09 "Hg10 mi
7:20 AM16 °FSunny.2 mph93%30.09 "Hg10 mi
5:20 PM
Wed, Mar 4
28 °FPassing clouds.7 mph55%29.86 "HgN/A
4:50 PM27 °FPassing clouds.5 mph59%29.86 "HgN/A
4:20 PM30 °FPassing clouds.12 mph51%29.86 "HgN/A
Weather by CustomWeather, © 2015

See weather overviewHow to use our weather pages